Other Public Products
Issued by NWS Grand Forks, ND

Home | Current Version | Previous Version | Text Only | Print | Product List | Glossary Off
Versions: 1 2 3 4 5 6 7 8 9 10 11 12 13 14 15 16 17 18 19 20 21 22 23 24 25 26 27 28 29 30 31 32 33 34 35 36 37 38 39 40 41 42 43 44 45 46 47 48 49 50

000
FPUS83 KFGF 171510
OPUFGF
PRAIRIE TO PINES WEATHER ROUNDUP
NATIONAL WEATHER SERVICE EASTERN NORTH DAKOTA/GRAND FORKS ND
1000 AM CDT THU APR 17 2014

 **SATELLITE DATA USED TO AUGMENT SKY COVER AT AUTOMATED STATIONS**
 *****  WEATHER ACROSS EASTERN NORTH DAKOTA  *****

CITY           SKY/WX    TMP DP  RH WIND       PRES   REMARKS
GRAND FORKS    SUNNY     30  19  63 NW5       30.37S
GRAND FORKS AF SUNNY     31  17  56 N7        30.37S WCI  24
GRAND CITY NWS   N/A     32 N/A N/A N9          N/A  WCI  24
BUXTON         NOT AVBL
DEVILS LAKE    SUNNY     28  12  50 CALM      30.34S
FARGO          SUNNY     33  18  53 N7        30.35S
WAHPETON ARPT  SUNNY     32  21  64 NW6       30.34S
$$

 *****  WEATHER ACROSS CENTRAL AND WESTERN NORTH DAKOTA  *****

CITY           SKY/WX    TMP DP  RH WIND       PRES   REMARKS
JAMESTOWN      SUNNY     30  17  58 E5        30.32F
BISMARCK       CLOUDY    29  15  56 SE8       30.31F WCI  21
MINOT          CLOUDY    27  13  55 E9        30.29F WCI  18
MINOT AFB      CLOUDY    26  14  60 SE8       30.29F WCI  18
GARRISON         N/A     28  16  60 SE9       30.27F WCI  19
WILLISTON      CLOUDY    29  22  75 SE17      30.19F WCI  17
DICKINSON      MOSUNNY   32  21  64 SE22G28   30.15F WCI  19
HETTINGER      LGT SNOW  28  24  85 SE14      30.18F FOG     WCI  17
$$

 *****  OTHER OBSERVATIONS NORTHEAST NORTH DAKOTA  *****

CITY           SKY/WX    TMP DP  RH WIND       PRES   REMARKS
WALHALLA         N/A     25  14  63 N5        30.39S WCI  19
LANGDON        FAIR      32   7  34 SE5       30.33S
CAVALIER       FAIR      27  14  59 N7        30.39S WCI  19
GRAFTON        FAIR      28  16  59 N8        30.38S WCI  20
CANDO          FAIR      28  14  54 E3        30.34F
FORT TOTTEN      N/A     30  17  57 NW2       29.95S
ROLLA          FAIR      25  10  54 E5        30.33S WCI  19
RUGBY          FAIR      27  14  59 SE7       30.32F WCI  19
 ***** THE ABOVE OBSERVATIONS ARE NON NWS ARE NOT QUALITY
        CONTROLLED AND MAY MIS-REPORT RAIN FOR SNOW...
$$

 *****  OTHER OBSERVATIONS SOUTHEAST NORTH DAKOTA *****

CITY           SKY/WX    TMP DP  RH WIND       PRES   REMARKS
COOPERSTOWN    FAIR      28  19  69 NE3       30.33S
VALLEY CITY    NOT AVBL
OAKES          FAIR      28  19  69 N3        30.33S
GWINNER        SUNNY     32  21  64 N8        30.34F WCI  25
SHEYENNE NWR     N/A     34  17  49 N5        29.95S
BUFFALO        NOT AVBL
WYNDMERE       NOT AVBL
 ***** THE ABOVE OBSERVATIONS ARE NON NWS ARE NOT QUALITY
       CONTROLLED AND MAY MIS-REPORT RAIN FOR SNOW...
$$

  *****  WEATHER ACROSS NORTHERN MINNESOTA  *****

CITY           SKY/WX    TMP DP  RH WIND       PRES   REMARKS
FLAG ISLAND    SUNNY     25  12  58 NW5       30.35S WCI  19
WARROAD        SUNNY     27   7  43 NE8       30.36S WCI  18
ROSEAU         SUNNY     30  10  43 NE3       30.35S
HALLOCK        CLOUDY    30  10  43 CALM      30.37F
THF RVR FALLS  SUNNY     30   7  37 N6        30.35S WCI  24
HALSTAD          N/A     33  16  48 N7          N/A
FOSSTON        SUNNY     30  14  51 CALM      30.32S
BAUDETTE       SUNNY     32   9  38 N5        30.32F
WASKISH        SUNNY     34  18  51 N8        30.29F
CROOKSTON      SUNNY     30  16  55 N7        30.36S WCI  23
$$
  *****  WEATHER ACROSS CENTRAL AND WEST MINNESOTA  *****

CITY           SKY/WX    TMP DP  RH WIND       PRES   REMARKS
BEMIDJI        SUNNY     32  10  40 N9        30.27F WCI  24
PARK RAPIDS    SUNNY     31  15  52 N13       30.26S WCI  21
WADENA         SUNNY     28  19  69 N10       30.27S WCI  19
DETROIT LAKES  SUNNY     34  14  44 NE9       30.30S
MOORHEAD       NOT AVBL
FERGUS FALLS   SUNNY     34  16  47 N6        30.31R
ELBOW LAKE     FAIR      30  19  62 N9        30.31R WCI  22
MORRIS MN      SUNNY     30  19  64 N13       30.30S WCI  20
STAPLES        SUNNY     28  19  69 NW9       30.27R WCI  20
WHEATON        SUNNY     34  25  69 NW9       30.35S
$$
  *****  WEATHER ELSEWHERE ACROSS MINNESOTA  *****

CITY           SKY/WX    TMP DP  RH WIND       PRES   REMARKS
DULUTH         CLOUDY    27  21  78 N13       30.16R WCI  16
INTRNTL FALLS  CLOUDY    27  14  58 N7        30.29S WCI  19
ELY            PTSUNNY   27  21  80 N7        30.20S HAZE    WCI  19
CLOQUET        CLOUDY    27  23  86 N12G18    30.18S WCI  16
BRAINERD       SUNNY     34  21  59 N14       30.24R WCI  25
HIBBING        CLOUDY    29  21  72 N12       30.21S WCI  19
ALEXANDRIA     SUNNY     29  19  66 N12       30.28R WCI  19
SAINT CLOUD    SUNNY     31  22  69 N8        30.24R WCI  23
MINNEAPOLIS    CLOUDY    30  27  88 NW13      30.22R WCI  20
$$

  *****  WEATHER ACROSS SOUTH DAKOTA  *****

CITY           SKY/WX    TMP DP  RH WIND       PRES   REMARKS
SIOUX FALLS    MOSUNNY   29  23  78 N12       30.31S WCI  19
BROOKINGS      NOT AVBL
WATERTOWN      SUNNY     27  19  72 N8        30.29S WCI  19
HURON          MOSUNNY   31  22  69 N3        30.33S
SISSETON         N/A     30  22  72 N10       30.32F WCI  21
ABERDEEN       MOSUNNY   29  21  72 NE6       30.33F WCI  23
MITCHELL       SUNNY     34  21  59 NE8       30.34S
PIERRE         CLOUDY    34  22  61 SE10      30.29S
MOBRIDGE       SUNNY     32  16  51 SE8       30.27F WCI  25
RAPID CITY     CLOUDY    36  29  75 S16G24    30.14S
$$

  *****  SOME WEATHER IN NEARBY STATES *****

CITY           SKY/WX    TMP DP  RH WIND       PRES   REMARKS
GLASGOW MT     CLOUDY    30  23  75 SE22      30.04F WCI  17
GREAT FALLS MT CLOUDY    46  33  60 SW16      29.86F
CHEYENNE WY    MOSUNNY   34  31  88 S6        30.08S
SCOTTSBLUFF NE CLOUDY    37  32  82 S8        30.15F
OMAHA NE       PTSUNNY   35  24  64 NW14      30.34R
DES MOINES IA  CLOUDY    36  27  69 NW15      30.28R
DAVENPORT IA   PTSUNNY   43  34  70 W16       30.21R
CHICAGO IL     MOSUNNY   51  31  46 SW18      30.15R
EAU CLAIRE WI  CLOUDY    35  33  92 NW10      30.13R
LA CROSSE WI   CLOUDY    41  35  79 W15       30.14R HAZE
$$

  *****  SOME NATIONAL WEATHER *****

CITY           SKY/WX    TMP DP  RH WIND       PRES   REMARKS
LA GUARDIA NY  MOSUNNY   41  25  53 NE17      30.74S
RALEIGH NC     PTSUNNY   49  31  49 E10       30.56S
ATLANTA GA     MOSUNNY   53  34  48 E16G23    30.42R
NEW ORLEANS LA PTSUNNY   65  55  70 NE12      30.17S
OKLAHOMA CITY  CLOUDY    55  40  56 SE6       30.18S
ALBUQUERQUE NM MOSUNNY   52  28  39 E21       30.14R
SALT LAKE CITY MOSUNNY   50  24  36 S15       30.06S
LOS ANGELES CA CLOUDY    60  52  74 E8        29.89R
BOISE ID       SUNNY     51  25  36 SE12      29.94S
SEATTLE WA     LGT RAIN  50  49  96 SE9       29.86F
$$

*** WEATHER ACROSS MANITOBA...SASKATCHEWAN AND ONTARIO ***
                ***ONTARIO***

CITY           SKY/WX    TMP DP  RH WIND       PRES   REMARKS
GERALDTON      CLOUDY    28  10  47 E7        30.36F WCI  21
THUNDER BAY    LGT SNOW  28  27  93 NE17G26   30.25F VSB 1   WCI  16
SIOUX LOOKOUT  PTSUNNY   27   3  36 E5        30.35F WCI  21
TORONTO        MOSUNNY   39  25  56 E16       30.53S
BIG TROUT LK   SUNNY     18   1  49 S7        30.43  WCI   8
PICKLE LAKE    MOSUNNY   25   0  33 N3        30.41F
DRYDEN         SUNNY     27   5  39 NE7       30.33F WCI  19
KENORA         NOT AVBL
$$
                *** MANITOBA***

CITY           SKY/WX    TMP DP  RH WIND       PRES   REMARKS
BRANDON        SUNNY     23  10  58 E7        30.38F WCI  15
DAUPHIN        SUNNY     23  16  74 VRB3      30.40F
ISLAND LAKE    MOSUNNY   23   5  46 CALM      30.43F
PILOT MOUND      N/A     28  12  50 E3          N/A
THE PAS        SUNNY     18   5  57 S7        30.39S WCI   8
THOMPSON       SUNNY     23   0  36 W8        30.37S WCI  14
WINNIPEG       SUNNY     27  12  54 N2        30.41F
LYNN LAKE      SUNNY     27   0  31 W10       30.30F WCI  17
GILLAM         MOSUNNY   21   5  49 W12       30.33F WCI   9
$$
                ***SASKATCHEWAN***

CITY           SKY/WX    TMP DP  RH WIND       PRES   REMARKS
ESTEVAN        CLOUDY    27  16  63 SE20      30.24F WCI  13
KINDERSLEY     CLOUDY    27  23  86 SE22G29   29.94S WCI  12
LLOYDMINSTER   LGT SNOW  25  23  93 E17G24    29.98F VSB 1   WCI  11
PRINCE ALBERT  PTSUNNY   25  14  63 SE9       30.23F WCI  15
REGINA         CLOUDY    28  16  59 SE26G32   30.19F WCI  13
YORKTON        SUNNY     25   9  50 SE14G20   30.30F WCI  13



USA.gov is the U.S. government's official web portal to all federal, state and local government web resources and services.